This is the latest recevied weather packets stored in our database for station/object W2EH. If no packets are shown the sender has not sent any weather packets the latest 10 day(s).
| Time | Temp. | Humidity | Pressure | Rain* | Wind** | Luminosity | Snow |
|---|---|---|---|---|---|---|---|
| 1777324311 | 31.67° C | 63% | 1007.6 hPa | 0 mm | - | 640 W/m² | - |
| 1777324008 | 32.22° C | 63% | 1007.8 hPa | 0 mm | - | 459 W/m² | - |
| 1777323706 | 31.67° C | 63% | 1007.7 hPa | 0 mm | - | 617 W/m² | - |
| 1777323402 | 31.67° C | 63% | 1007.8 hPa | 0 mm | - | 653 W/m² | - |
| 1777323100 | 31.67° C | 62% | 1008 hPa | 0 mm | - | 609 W/m² | - |
| 1777322798 | 31.11° C | 63% | 1007.9 hPa | 0 mm | - | 639 W/m² | - |
| 1777322496 | 31.67° C | 62% | 1008.1 hPa | 0 mm | - | 159 W/m² | - |
| 1777322193 | 31.67° C | 62% | 1007.8 hPa | 0 mm | - | 665 W/m² | - |
| 1777321890 | 31.67° C | 62% | 1008 hPa | 0 mm | - | 669 W/m² | - |
| 1777321586 | 31.67° C | 63% | 1008 hPa | 0 mm | - | 676 W/m² | - |
| 1777321284 | 31.67° C | 62% | 1008.1 hPa | 0 mm | - | 660 W/m² | - |
| 1777320980 | 31.67° C | 62% | 1008.1 hPa | 0 mm | - | 730 W/m² | - |
| 1777320678 | 32.22° C | 62% | 1008.1 hPa | 0 mm | - | 669 W/m² | - |
| 1777320375 | 31.67° C | 63% | 1008.2 hPa | 0 mm | - | 608 W/m² | - |
| 1777320072 | 31.67° C | 63% | 1008.4 hPa | 0 mm | - | 710 W/m² | - |
| 1777319769 | 31.67° C | 62% | 1008.5 hPa | 0 mm | - | 162 W/m² | - |
| 1777319466 | 31.67° C | 61% | 1008.4 hPa | 0 mm | - | 723 W/m² | - |
| 1777319163 | 31.67° C | 62% | 1008.4 hPa | 0 mm | - | 223 W/m² | - |
| 1777318860 | 31.11° C | 62% | 1008.4 hPa | 0 mm | - | 815 W/m² | - |
| 1777318556 | 31.11° C | 63% | 1008.5 hPa | 0 mm | - | 764 W/m² | - |
| 1777318253 | 31.67° C | 61% | 1008.4 hPa | 0 mm | - | 231 W/m² | - |
| 1777317950 | 31.67° C | 58% | 1008.5 hPa | 0 mm | - | 563 W/m² | - |
| 1777317647 | 31.67° C | 60% | 1008.6 hPa | 0 mm | - | 509 W/m² | - |
| 1777317345 | 31.67° C | 60% | 1008.6 hPa | 0 mm | - | 778 W/m² | - |
| 1777317045 | 31.67° C | 61% | 1008.6 hPa | 0 mm | - | 817 W/m² | - |
* Rain latest hour (hover to see other rain measurements)
** Current wind speed in m/s (hover to see current wind gust speed)